Location: Oberwangen
(47.4286°N, 8.9679°E)
Time: 06:28:51
(UTC+00:00)

Cosmos 2369 Rocket - Pass Details

Date: 20 June 2021
Orbit: 827 x 854 km, 71.0° (Epoch: 28 July)

Event Time Altitude Azimuth Distance (km) Brightness Sun altitude
Rises 22:28:35 0° 337° (NNW) 3,434 7.0 -18.0°
Reaches altitude 10° 22:31:24 10° 349° (NNW) 2,495 5.9 -18.1°
Maximum altitude 22:36:20 29° 48° (NE) 1,532 3.8 -18.3°
Drops below altitude 10° 22:41:14 10° 107° (ESE) 2,480 4.4 -18.4°
Enters shadow 22:41:40 - 110° (ESE) 2,619 4.5 -18.4°
